FENGYUN 1C DEB, 31322

Orbit data source: Space-Track

FENGYUN 1C DEB, 31322 is space debris in SSO originally from a launch on Mon, 10 May 1999 UTC launched from the Taiyaun Space Center, China (TSC). Fengyun 1C debris stems from the Chinese weather satellite Fengyun-1C, which was intentionally destroyed by a Chinese anti-satellite missile in 2007. This event dramatically increased the amount of space debris, with thousands of trackable fragments posing hazards to satellites and human spaceflight. The Fengyun 1C debris cloud has become a focal point in discussions about space sustainability and the need for international regulations to prevent the creation of new debris.

Loading next visibility...
Identifier
31322, 1999-025BQA
Orbit
SSO
Country
Flag of CNCN / PRC
Related business
Manufacturer
Unknown
Mission
Spacecraft
Bus & Motor
Unknown
Mass
Unknown
Launch date (UTC)
1999-05-10 (27 years ago)
Launch vehicle
Unknown
Launch site
Taiyaun Space Center, China (TSC)
Object type
Payload
Rocket body
Debris
Shape & HBR
Unknown shape, 0.1 m
Radar Cross Section
Small (<0.1 m²)

Expand to show TLE details & history
Last TLE update: 1 week ago

TLE from 1 week ago
0 FENGYUN 1C DEB
1 31322U 99025BQA 26256.34311406  .00000076  00000-0  10082-3 0  9996
2 31322  98.5372 296.2442 0238126 354.7363  62.6943 13.73114030660442
Epoch: 2026-09-13T08:14Z
TLE epoch observation values (Epoch: 2026-09-13T08:14:05.054Z)
Latitude
58.9072°
Longitude
166.04769°
Altitude
921.207 km
Speed
7.436 km/s
True Right ascension
18h 47m 37s
True Declination
58° 45' 30"
Sunlit
Object was in daylight at epoch
Visualization orbit readout
Latitude
Unknown
Longitude
Unknown
Altitude
Unknown
Speed
Unknown
Apparent Right ascension
Unknown
Apparent Declination
Unknown
Sunlit
N/A
Visualization observer readout
Local Sidereal Time
08:25:14
Azimuth
Unknown
Elevation
Unknown
Doppler factor
Unknown
Orbital elements
Apogee altitude
1,160.974 km
Perigee altitude
810.273 km
Semi-major axis
7,363.761 km
Eccentricity
0.02381
Inclination
98.5372°
RAAN
296.2442°
Arg. of periapsis
354.7363°
True anomaly
65.15176°
Mean anomaly
62.6943°
Eccentric anomaly
63.91974°
Mean motion
3.43474 °/min
Orbital period
104.81 mins
BSTAR
0.00010082
Loading maneuver chart data...
Computing Atmospheric mass density...

Documentation

Showing up to 5 results
|